Back to catalog

MBZ-SAT

AliveScienceSSO
NORAD 62626·PAYLOAD·🇦🇪 UAE

Launched Jan 14, 2025 from Vandenberg Space Force Base

Loading…

Next Passes (next 24 hours)

TLE

FreshSource: Space-Track

Epoch: Sep 14, 2026, 11:53 UTC

1 62626U 25009T   26257.49558027  .00001219  00000-0  63488-4 0  9996
2 62626  97.3924 333.7183 0006382  45.9440 314.2319 15.17852021 92232

Track MBZ-SAT in real time with AllMySat

Download on the App Store